TimeEDT,TemperatureF,Dew PointF,Humidity,Sea Level PressureIn,VisibilityMPH,Wind Direction,Wind SpeedMPH,Gust SpeedMPH,PrecipitationIn,Events,Conditions,WindDirDegrees,DateUTC
12:56 AM,64.9,46.0,50,30.15,10.0,ESE,5.8,-,N/A,,Clear,120,2013-06-20 04:56:00
1:56 AM,64.0,46.9,54,30.14,10.0,ESE,6.9,-,N/A,,Clear,110,2013-06-20 05:56:00
2:56 AM,60.1,48.9,67,30.15,10.0,Calm,Calm,-,N/A,,Clear,0,2013-06-20 06:56:00
3:56 AM,60.1,48.9,67,30.15,10.0,ESE,4.6,-,N/A,,Clear,120,2013-06-20 07:56:00
4:56 AM,59.0,48.9,69,30.16,10.0,ESE,4.6,-,N/A,,Clear,110,2013-06-20 08:56:00
5:56 AM,57.9,48.9,72,30.18,10.0,Calm,Calm,-,N/A,,Scattered Clouds,0,2013-06-20 09:56:00
6:56 AM,59.0,52.0,78,30.19,10.0,East,3.5,-,N/A,,Mostly Cloudy,100,2013-06-20 10:56:00
7:56 AM,64.9,51.1,61,30.20,10.0,SE,4.6,-,N/A,,Mostly Cloudy,130,2013-06-20 11:56:00
8:56 AM,68.0,52.0,56,30.22,10.0,SSE,5.8,-,N/A,,Mostly Cloudy,150,2013-06-20 12:56:00
9:56 AM,73.0,55.0,53,30.22,10.0,Calm,Calm,-,N/A,,Mostly Cloudy,0,2013-06-20 13:56:00
10:56 AM,75.9,55.9,50,30.22,10.0,South,4.6,-,N/A,,Scattered Clouds,180,2013-06-20 14:56:00
11:56 AM,78.1,57.0,48,30.21,10.0,South,3.5,-,N/A,,Scattered Clouds,170,2013-06-20 15:56:00
12:56 PM,79.0,55.9,45,30.20,10.0,SW,4.6,-,N/A,,Scattered Clouds,220,2013-06-20 16:56:00
1:56 PM,81.0,55.0,41,30.19,10.0,West,3.5,-,N/A,,Scattered Clouds,280,2013-06-20 17:56:00
2:56 PM,82.0,57.0,42,30.19,10.0,East,4.6,-,N/A,,Scattered Clouds,90,2013-06-20 18:56:00
3:56 PM,84.0,55.0,37,30.19,10.0,WNW,6.9,-,N/A,,Scattered Clouds,290,2013-06-20 19:56:00
4:56 PM,82.9,55.9,39,30.18,10.0,Calm,Calm,-,N/A,,Scattered Clouds,0,2013-06-20 20:56:00
5:56 PM,80.1,59.0,48,30.18,10.0,ENE,5.8,-,N/A,,Scattered Clouds,70,2013-06-20 21:56:00
6:56 PM,82.0,55.9,41,30.17,10.0,SE,6.9,-,N/A,,Scattered Clouds,140,2013-06-20 22:56:00
7:56 PM,80.1,57.0,45,30.16,10.0,SSE,6.9,-,N/A,,Scattered Clouds,150,2013-06-20 23:56:00
8:56 PM,75.9,57.9,54,30.16,10.0,SSE,8.1,-,N/A,,Partly Cloudy,150,2013-06-21 00:56:00
9:56 PM,75.9,57.0,52,30.16,10.0,South,3.5,-,N/A,,Clear,170,2013-06-21 01:56:00
10:56 PM,72.0,57.9,61,30.19,10.0,SE,9.2,-,N/A,,Clear,140,2013-06-21 02:56:00
11:56 PM,71.1,57.9,63,30.20,10.0,SSE,6.9,-,N/A,,Clear,160,2013-06-21 03:56:00